Patterson, LA

3:34 AM CST on November 18, 2019 (GMT -0600)
Williams Memorial

Weather History for KPTN - September, 2019

Change the Weather History Date:

Tuesday, September 3, 2019

  Actual Average Record
Temperature  
Mean Temperature 85 °F -  
Max Temperature 93 °F 86 °F 98 °F (2000)
Min Temperature 75 °F 71 °F 71 °F (1998)
Cooling Degree Days 20    
Growing Degree Days 35 (Base 50)    
Moisture  
Dew Point 75 °F    
Average Humidity 79    
Maximum Humidity 97    
Minimum Humidity 55    
Precipitation  
Precipitation 0.00 in - - ()
Sea Level Pressure  
Sea Level Pressure 29.93 in    
Wind  
Wind Speed 4 mph (ENE)    
Max Wind Speed 13 mph    
Max Gust Speed 17 mph    
Visibility 10 miles    
Events Rain    
Averages and records for this station are not official NWS values.
T = Trace of Precipitation, MM = Missing Value Source: NWS Daily Summary

Daily Weather History Graph

Daily Weather History Graph

Search for Another Location

Airport or City:

Astronomy

Sep. 03, 2019 Rise Set
Actual Time 6:43 AM CDT 7:25 PM CDT
Civil Twilight 6:19 AM CDT 7:49 PM CDT
Nautical Twilight 5:50 AM CDT 8:18 PM CDT
Astronomical Twilight 5:21 AM CDT 8:47 PM CDT
Moon 11:16 AM CDT (9/3) 10:45 PM CDT (9/3)
Length of Visible Light 13h 30m
Length of Day
12h 41m
Waxing Crescent, 25% of the Moon is Illuminated
Sep 3
Waxing Crescent
Sep 5
First Quarter
Sep 13
Full
Sep 21
Last Quarter
Sep 28
New

Hourly Weather History & Observations

Time (CDT) Temp. Heat Index Dew Point Humidity Pressure Visibility Wind Dir Wind Speed Gust Speed Precip Events Conditions
12:56 AM 79.0 °F - 77.0 °F 94% 29.93 in 10.0 mi Calm Calm - N/A   Clear
1:56 AM 78.1 °F - 77.0 °F 96% 29.92 in 10.0 mi Calm Calm - N/A   Clear
2:56 AM 78.1 °F - 77.0 °F 96% 29.91 in 10.0 mi Calm Calm - N/A   Clear
3:56 AM 78.1 °F - 77.0 °F 96% 29.91 in 10.0 mi Calm Calm - N/A   Clear
4:56 AM 77.0 °F - 75.9 °F 96% 29.91 in 10.0 mi NE 4.6 mph - N/A   Clear
5:56 AM 77.0 °F - 75.0 °F 94% 29.92 in 10.0 mi NE 6.9 mph - N/A   Clear
6:56 AM 77.0 °F - 75.0 °F 94% 29.95 in 10.0 mi NE 5.8 mph - N/A   Clear
7:56 AM 80.1 °F 85.4 °F 75.9 °F 87% 29.96 in 10.0 mi NE 6.9 mph - N/A   Clear
8:56 AM 82.9 °F 90.8 °F 75.9 °F 79% 29.96 in 10.0 mi ENE 8.1 mph - N/A   Clear
9:56 AM 87.1 °F 99.8 °F 78.1 °F 74% 29.96 in 10.0 mi ENE 8.1 mph - N/A   Clear
10:56 AM 89.1 °F 100.2 °F 75.9 °F 65% 29.96 in 10.0 mi ENE 11.5 mph 17.3 mph N/A   Clear
11:56 AM 90.0 °F 100.2 °F 75.0 °F 61% 29.95 in 10.0 mi East 12.7 mph - N/A   Scattered Clouds
12:56 PM 89.1 °F 99.1 °F 75.0 °F 63% 29.94 in 10.0 mi ENE 10.4 mph - N/A   Mostly Cloudy
1:56 PM 91.0 °F 101.6 °F 75.0 °F 59% 29.92 in 10.0 mi East 11.5 mph - N/A   Mostly Cloudy
2:56 PM 89.1 °F 98.0 °F 73.9 °F 61% 29.91 in 10.0 mi ENE 9.2 mph - N/A   Scattered Clouds
3:56 PM 93.0 °F 104.6 °F 75.0 °F 56% 29.89 in 10.0 mi NE 10.4 mph - N/A   Mostly Cloudy
4:56 PM 91.0 °F 101.6 °F 75.0 °F 59% 29.90 in 10.0 mi ENE 11.5 mph - N/A   Scattered Clouds
5:56 PM 90.0 °F 96.9 °F 72.0 °F 55% 29.91 in 10.0 mi ENE 10.4 mph - N/A   Clear
6:56 PM 87.1 °F 94.5 °F 73.0 °F 63% 29.92 in 10.0 mi ENE 4.6 mph - N/A   Clear
7:56 PM 81.0 °F 87.3 °F 75.9 °F 85% 29.93 in 10.0 mi East 3.5 mph - 0.00 in Rain Light Rain
8:56 PM 78.1 °F - 75.0 °F 90% 29.94 in 10.0 mi Calm Calm - 0.00 in   Clear
9:56 PM 78.1 °F - 75.0 °F 90% 29.94 in 10.0 mi Calm Calm - N/A   Clear
10:56 PM 77.0 °F - 75.0 °F 94% 29.95 in 10.0 mi Calm Calm - N/A   Clear
11:56 PM 75.9 °F - 75.0 °F 97% 29.95 in 10.0 mi Calm Calm - N/A   Clear